Alexandria, LA

11:13 PM CST on February 24, 2017 (GMT -0600)
Alexandria International

Weather History for KAEX - August, 2013

Change the Weather History Date:

Monday, August 5, 2013

  Actual Average Record
Temperature  
Mean Temperature 87 °F 83 °F  
Max Temperature 98 °F 93 °F 104 °F (1897)
Min Temperature 76 °F 73 °F 60 °F (1912)
Cooling Degree Days 22 18  
Month to date cooling degree days 107 90  
Year to date cooling degree days 1508 1536  
Since 1 June cooling degree days 1115 1082  
Growing Degree Days 36 (Base 50)    
Moisture  
Dew Point 74 °F    
Average Humidity 71    
Maximum Humidity 100    
Minimum Humidity 42    
Precipitation  
Precipitation 0.00 in 0.11 in 2.03 in (1955)
Month to date precipitation T 0.56  
Year to date precipitation 32.91 33.29  
Sea Level Pressure  
Sea Level Pressure 29.99 in    
Wind  
Wind Speed 5 mph (SW)    
Max Wind Speed 10 mph    
Max Gust Speed 17 mph    
Visibility 10 miles    
Events      
T = Trace of Precipitation, MM = Missing Value Source: NWS Daily Summary

Daily Weather History Graph

Daily Weather History Graph

Search for Another Location

Airport or City:

Trip Planner

Search our weather history database for the weather conditions in past years. The results will help you decide how hot, cold, wet, or windy it might be!

Date:

Astronomy

Aug. 05, 2013 Rise Set
Actual Time 6:29 AM CDT 8:02 PM CDT
Civil Twilight 6:03 AM CDT 8:28 PM CDT
Nautical Twilight 5:32 AM CDT 8:59 PM CDT
Astronomical Twilight 4:59 AM CDT 9:32 PM CDT
Moon 5:24 AM CDT (8/5) 7:05 PM CDT (8/5)
Length of Visible Light 14h 25m
Length of Day
13h 32m
Waning Crescent, 1% of the Moon is Illuminated
Aug 5
Waning Crescent
Aug 6
New
Aug 14
First Quarter
Aug 20
Full
Aug 28
Last Quarter

Hourly Weather History & Observations

Time (CDT) Temp. Heat Index Dew Point Humidity Pressure Visibility Wind Dir Wind Speed Gust Speed Precip Events Conditions
12:53 AM 78.1 °F - 73.9 °F 87% 30.03 in 10.0 mi Calm Calm - N/A   Clear
1:53 AM 77.0 °F - 73.9 °F 90% 30.01 in 10.0 mi Calm Calm - N/A   Clear
2:53 AM 77.0 °F - 73.9 °F 90% 30.01 in 10.0 mi Calm Calm - N/A   Clear
3:53 AM 78.1 °F - 75.0 °F 90% 30.01 in 10.0 mi Variable 3.5 mph - N/A   Clear
4:53 AM 78.1 °F - 75.0 °F 90% 30.01 in 10.0 mi Calm Calm - N/A   Clear
5:53 AM 75.9 °F - 75.0 °F 97% 30.01 in 9.0 mi Calm Calm - N/A   Clear
6:53 AM 75.9 °F - 73.9 °F 94% 30.03 in 7.0 mi Calm Calm - N/A   Clear
7:53 AM 79.0 °F - 75.9 °F 90% 30.04 in 10.0 mi Variable 3.5 mph - N/A   Clear
8:53 AM 82.9 °F 91.8 °F 77.0 °F 82% 30.05 in 10.0 mi WSW 5.8 mph - N/A   Scattered Clouds
9:53 AM 86.0 °F 96.9 °F 77.0 °F 74% 30.04 in 10.0 mi WSW 10.4 mph - N/A   Scattered Clouds
10:53 AM 90.0 °F 99.0 °F 73.9 °F 59% 30.04 in 10.0 mi Variable 5.8 mph - N/A   Partly Cloudy
11:53 AM 93.0 °F 103.2 °F 73.9 °F 54% 30.03 in 10.0 mi WNW 6.9 mph - N/A   Clear
12:53 PM 93.0 °F 100.7 °F 72.0 °F 50% 30.01 in 10.0 mi West 5.8 mph - N/A   Clear
1:53 PM 97.0 °F 105.5 °F 72.0 °F 44% 29.99 in 10.0 mi West 8.1 mph - N/A   Partly Cloudy
2:53 PM 97.0 °F 103.5 °F 70.0 °F 41% 29.96 in 10.0 mi North 4.6 mph - N/A   Partly Cloudy
3:53 PM 96.1 °F 104.9 °F 72.0 °F 46% 29.94 in 10.0 mi SSW 6.9 mph - N/A   Clear
4:53 PM 97.0 °F 103.5 °F 70.0 °F 41% 29.93 in 10.0 mi Variable 5.8 mph - N/A   Partly Cloudy
5:53 PM 95.0 °F 103.2 °F 72.0 °F 47% 29.91 in 10.0 mi SSW 4.6 mph - N/A   Scattered Clouds
6:53 PM 91.9 °F 100.7 °F 73.0 °F 54% 29.91 in 10.0 mi SSE 3.5 mph - N/A   Scattered Clouds
7:53 PM 90.0 °F 94.5 °F 69.1 °F 50% 29.92 in 10.0 mi South 3.5 mph - N/A   Scattered Clouds
8:53 PM 88.0 °F 94.7 °F 72.0 °F 59% 29.93 in 10.0 mi SSE 5.8 mph - N/A   Mostly Cloudy
9:53 PM 82.9 °F 90.8 °F 75.9 °F 79% 29.95 in 10.0 mi SSE 5.8 mph - N/A   Clear
10:53 PM 82.9 °F 89.4 °F 73.9 °F 74% 29.95 in 10.0 mi South 5.8 mph - N/A   Clear
11:53 PM 82.0 °F 87.9 °F 73.9 °F 76% 29.95 in 10.0 mi South 5.8 mph - N/A   Clear